• In Belarus
  • List of Countries
  • For 7 days
  • Water Temperature
  • Satellite Maps
  • Weather Map
  • Weather Widgets
  • user-avatar
    Login

    Hourly Weather Polkowiczki

    Today, 19 February, Tuesday

    Time Temperature Precipitation Wind Pressure Humidity
    00:00 +5°C° 0 mm 2 mps 752 mmHg 64%
    01:00 +5°C° 0 mm 2 mps 752 mmHg 65%
    02:00 +4°C° 0 mm 3 mps 751 mmHg 66%
    03:00 +4°C° 0 mm 3 mps 751 mmHg 67%
    04:00 +3°C° 0 mm 3 mps 751 mmHg 67%
    05:00 +3°C° 0 mm 3 mps 751 mmHg 68%
    06:00 +3°C° 0 mm 4 mps 750 mmHg 68%
    07:00 +3°C° 0 mm 4 mps 750 mmHg 69%
    08:00 +5°C° 0 mm 4 mps 750 mmHg 66%
    09:00 +6°C° 0 mm 5 mps 750 mmHg 63%
    10:00 +7°C° 0 mm 5 mps 750 mmHg 60%
    11:00 +8°C° 0 mm 5 mps 750 mmHg 60%
    12:00 +9°C° 0 mm 6 mps 750 mmHg 60%
    13:00 +10°C° 0 mm 6 mps 750 mmHg 61%
    14:00 +10°C° 0 mm 5 mps 750 mmHg 66%
    15:00 +9°C° 0 mm 5 mps 750 mmHg 71%
    16:00 +8°C° 0 mm 4 mps 750 mmHg 76%
    17:00 +8°C° 0.1 mm 4 mps 750 mmHg 79%
    18:00 +7°C° 0.1 mm 4 mps 750 mmHg 82%
    19:00 +6°C° 0.1 mm 4 mps 751 mmHg 85%
    20:00 +6°C° 0 mm 4 mps 751 mmHg 85%
    21:00 +5°C° 0 mm 4 mps 751 mmHg 84%
    22:00 +5°C° 0 mm 4 mps 751 mmHg 84%
    23:00 +5°C° 0 mm 4 mps 751 mmHg 83%

    Tomorrow, 20 February, Wednesday

    Time Temperature Precipitation Wind Pressure Humidity
    00:00 +5°C° 0 mm 4 mps 752 mmHg 82%
    01:00 +5°C° 0 mm 4 mps 752 mmHg 82%
    02:00 +3°C° 0 mm 5 mps 752 mmHg 82%
    03:00 +3°C° 0 mm 5 mps 752 mmHg 82%
    04:00 +3°C° 0 mm 5 mps 752 mmHg 83%
    05:00 +3°C° 0 mm 5 mps 752 mmHg 83%
    06:00 +3°C° 0 mm 5 mps 753 mmHg 83%
    07:00 +3°C° 0 mm 5 mps 753 mmHg 83%
    08:00 +3°C° 0 mm 5 mps 753 mmHg 82%
    09:00 +3°C° 0 mm 5 mps 754 mmHg 81%
    10:00 +5°C° 0 mm 5 mps 754 mmHg 79%
    11:00 +5°C° 0 mm 5 mps 754 mmHg 75%
    12:00 +6°C° 0 mm 5 mps 755 mmHg 71%
    13:00 +7°C° 0 mm 5 mps 755 mmHg 67%
    14:00 +7°C° 0 mm 4 mps 755 mmHg 67%
    15:00 +7°C° 0 mm 4 mps 755 mmHg 68%
    16:00 +7°C° 0 mm 4 mps 755 mmHg 68%
    17:00 +8°C° 0 mm 3 mps 755 mmHg 72%
    18:00 +7°C° 0 mm 3 mps 756 mmHg 75%
    19:00 +7°C° 0 mm 2 mps 756 mmHg 79%
    20:00 +5°C° 0 mm 3 mps 756 mmHg 80%
    21:00 +5°C° 0 mm 3 mps 756 mmHg 82%
    22:00 +4°C° 0 mm 3 mps 756 mmHg 83%
    23:00 +4°C° 0 mm 3 mps 756 mmHg 81%

    Day after tomorrow, 21 February, Thursday

    Time Temperature Precipitation Wind Pressure Humidity
    00:00 +4°C° 0 mm 3 mps 756 mmHg 80%
    01:00 +4°C° 0 mm 3 mps 756 mmHg 78%
    02:00 +4°C° 0.1 mm 3 mps 756 mmHg 79%
    03:00 +4°C° 0.1 mm 4 mps 756 mmHg 80%
    04:00 +4°C° 0.1 mm 4 mps 756 mmHg 81%
    05:00 +4°C° 0.2 mm 4 mps 756 mmHg 83%
    06:00 +5°C° 0.2 mm 5 mps 756 mmHg 84%
    07:00 +5°C° 0.2 mm 5 mps 756 mmHg 85%
    08:00 +5°C° 0.2 mm 5 mps 756 mmHg 82%
    09:00 +5°C° 0.2 mm 6 mps 756 mmHg 80%
    10:00 +5°C° 0.2 mm 6 mps 756 mmHg 78%
    11:00 +7°C° 0.2 mm 6 mps 756 mmHg 74%
    12:00 +8°C° 0.2 mm 6 mps 756 mmHg 71%
    13:00 +9°C° 0.2 mm 7 mps 756 mmHg 68%
    14:00 +8°C° 1.1 mm 6 mps 755 mmHg 74%
    15:00 +7°C° 1.1 mm 5 mps 755 mmHg 81%
    16:00 +6°C° 1.1 mm 5 mps 755 mmHg 87%
    17:00 +7°C° 0.3 mm 5 mps 755 mmHg 88%
    18:00 +7°C° 0.3 mm 5 mps 756 mmHg 89%
    19:00 +7°C° 0.3 mm 5 mps 756 mmHg 90%
    20:00 +7°C° 0.1 mm 5 mps 756 mmHg 90%
    21:00 +7°C° 0.1 mm 5 mps 757 mmHg 90%
    22:00 +7°C° 0.1 mm 5 mps 757 mmHg 90%
    23:00 +7°C° 0.1 mm 5 mps 757 mmHg 89%

    22 February, Friday

    Time Temperature Precipitation Wind Pressure Humidity
    00:00 +7°C° 0.1 mm 5 mps 757 mmHg 89%
    01:00 +7°C° 0.1 mm 5 mps 758 mmHg 89%
    02:00 +7°C° 0.1 mm 5 mps 758 mmHg 88%
    03:00 +7°C° 0.1 mm 5 mps 758 mmHg 87%
    04:00 +7°C° 0.1 mm 5 mps 759 mmHg 86%
    05:00 +6°C° 0.1 mm 5 mps 760 mmHg 86%
    06:00 +6°C° 0.1 mm 5 mps 760 mmHg 87%
    07:00 +5°C° 0.1 mm 5 mps 761 mmHg 87%
    08:00 +4°C° 0 mm 4 mps 762 mmHg 83%
    09:00 +3°C° 0 mm 4 mps 763 mmHg 79%
    10:00 +1°C° 0 mm 4 mps 764 mmHg 75%
    11:00 +1°C° 0 mm 4 mps 765 mmHg 69%
    12:00 +3°C° 0 mm 4 mps 765 mmHg 64%
    13:00 +3°C° 0 mm 4 mps 766 mmHg 58%
    14:00 +3°C° 0 mm 3 mps 766 mmHg 56%
    15:00 +3°C° 0 mm 3 mps 767 mmHg 55%
    16:00 +3°C° 0 mm 3 mps 767 mmHg 53%
    17:00 +2°C° 0 mm 3 mps 768 mmHg 57%
    18:00 +1°C° 0 mm 2 mps 768 mmHg 61%
    19:00 -1°C° 0 mm 2 mps 769 mmHg 65%
    20:00 -1°C° 0 mm 2 mps 769 mmHg 65%
    21:00 -1°C° 0 mm 2 mps 770 mmHg 65%
    22:00 -2°C° 0 mm 2 mps 770 mmHg 65%
    23:00 -2°C° 0 mm 2 mps 770 mmHg 65%

    23 February, Saturday

    Time Temperature Precipitation Wind Pressure Humidity
    00:00 -2°C° 0 mm 2 mps 770 mmHg 64%
    01:00 -2°C° 0 mm 2 mps 770 mmHg 64%
    02:00 -2°C° 0 mm 2 mps 770 mmHg 64%
    03:00 -2°C° 0 mm 2 mps 770 mmHg 63%
    04:00 -2°C° 0 mm 2 mps 770 mmHg 63%
    05:00 -2°C° 0 mm 2 mps 770 mmHg 61%
    06:00 0°C° 0 mm 1 mps 770 mmHg 60%
    07:00 -1°C° 0 mm 1 mps 770 mmHg 58%
    08:00 +1°C° 0 mm 1 mps 770 mmHg 51%
    09:00 +3°C° 0 mm 1 mps 770 mmHg 43%
    10:00 +4°C° 0 mm 1 mps 770 mmHg 36%
    11:00 +5°C° 0 mm 1 mps 769 mmHg 33%
    12:00 +7°C° 0 mm 1 mps 769 mmHg 31%
    13:00 +8°C° 0 mm 1 mps 769 mmHg 28%
    14:00 +8°C° 0 mm 1 mps 768 mmHg 32%
    15:00 +8°C° 0 mm 1 mps 768 mmHg 36%
    16:00 +7°C° 0 mm 1 mps 767 mmHg 40%
    17:00 +6°C° 0 mm 1 mps 767 mmHg 45%
    18:00 +4°C° 0 mm 1 mps 767 mmHg 49%
    19:00 +3°C° 0 mm 1 mps 767 mmHg 54%
    20:00 +3°C° 0 mm 1 mps 767 mmHg 56%
    21:00 +2°C° 0 mm 1 mps 767 mmHg 57%
    22:00 +2°C° 0 mm 1 mps 767 mmHg 59%
    23:00 +1°C° 0 mm 0 mps 767 mmHg 58%

    24 February, Sunday

    Time Temperature Precipitation Wind Pressure Humidity
    00:00 0°C° 0 mm 0 mps 767 mmHg 58%
    01:00 0°C° 0 mm 0 mps 767 mmHg 57%
    02:00 0°C° 0 mm 0 mps 767 mmHg 56%
    03:00 0°C° 0 mm 0 mps 766 mmHg 56%
    04:00 0°C° 0 mm 0 mps 766 mmHg 56%
    05:00 0°C° 0 mm 0 mps 767 mmHg 56%
    06:00 0°C° 0 mm 0 mps 767 mmHg 56%
    07:00 0°C° 0 mm 0 mps 767 mmHg 57%
    08:00 +2°C° 0 mm 0 mps 767 mmHg 53%
    09:00 +3°C° 0 mm 0 mps 767 mmHg 50%
    10:00 +5°C° 0 mm 0 mps 767 mmHg 46%
    11:00 +6°C° 0 mm 0 mps 767 mmHg 48%
    12:00 +7°C° 0 mm 0 mps 767 mmHg 50%
    13:00 +8°C° 0 mm 0 mps 767 mmHg 52%
    14:00 +8°C° 0 mm 0 mps 767 mmHg 54%
    15:00 +8°C° 0 mm 0 mps 766 mmHg 56%
    16:00 +9°C° 0 mm 1 mps 766 mmHg 58%
    17:00 +7°C° 0 mm 0 mps 766 mmHg 64%
    18:00 +5°C° 0 mm 0 mps 766 mmHg 69%
    19:00 +4°C° 0 mm 0 mps 766 mmHg 75%
    20:00 +4°C° 0 mm 0 mps 766 mmHg 76%
    21:00 +3°C° 0 mm 0 mps 765 mmHg 77%
    22:00 +4°C° 0 mm 1 mps 765 mmHg 78%
    23:00 +4°C° 0 mm 1 mps 765 mmHg 80%
    Show more